"Pseudo-MPEC" for P11C69o

Created 2022 Nov 25 20:22:13 UT using Find_Orb

Click here for an explanation of pseudo-MPECs

 
 Astrometry: 
     P11C69o  C2022 11 16*IVH[AstrometryuP[fil'!D._O_h'^EG?2IfqpQETV6QRqqAcyvF52
     P11C69o  C2022 11 16aa57G$r+IsJ5Bj,lA,Gu#1GV]?QNYcSA%eDx5YtY@gThPBk;i!x.F52
     P11C69o  C2022 11 16SS'redacted;o`D@@',d%uxy/@cDbm@.cc/aLb:,C/clicklB1gbF52
     P11C69o 1C2022 11 16.42896504 48 28.177+13 21 14.33   ~BPE7 20.88GVNEOCPG96
     P11C69o 1C2022 11 16.43414004 48 28.004+13 21 14.26   ~BPE7 22.21GVNEOCPG96
     P11C69o 1C2022 11 16.43930204 48 27.875+13 21 13.54   ~BPE7 21.06GVNEOCPG96
     P11C69o 1C2022 11 16.44446404 48 27.659+13 21 12.64   ~BPE7 21.02GVNEOCPG96
     P11C69o* C2022 11 24lsqH$qWvkutTh:bQXqm*4a6WK]y6J;)wBEK#w=herexqq@fYLD*?F51
     P11C69o  C2022 11 24(Zv+!OB%EKA%HAQ%rnWD?w0xI.(Bj!#.QbdZ*fori%/FF5nh@M`4F51
     P11C69o  C2022 11 24*^S'H++Vexplanationg'Fh*/sGsT+Y;bZ*0HJ]b8gGEIIP.q5:tF51
     P11C69o KC2022 11 25.27282404 43 39.910+13 15 53.70   ~BP8M 21.09GVNEOCPI52
     P11C69o KC2022 11 25.28920204 43 39.350+13 15 53.60   ~BP8M 21.62GVNEOCPI52
     P11C69o KC2022 11 25.33291704 43 37.740+13 15 52.00   ~BP8M       VNEOCPI52

Station data:
(F51) Pan-STARRS 1, Haleakala  (N20.707234 W156.255910)  US/Hawaii.
   Observers J. Bulger, T. Lowe, A. Schultz, M. Willman. Measurers K.
   Chambers, S. Chastel, T. de Boer, L. Denneau, J. Fairlamb, H. Flewelling,
   M. Huber, C.-C. Lin, E. Magnier, Y. Ramanjooloo, R. Wainscoat, R. Weryk.
   1.8-m Ritchey-Chrétien + CCD.
(F52) Pan-STARRS 2, Haleakala  (N20.707382 W156.255910)  US/Hawaii.
   Observers J. Bulger, T. Dukes, T. Lowe, A. Schultz, M. Willman. Measurers
   K. Chambers, S. Chastel, T. de Boer, L. Denneau, J. Fairlamb, H.
   Flewelling, M. Huber, C.-C. Lin, E. Magnier, Y. Ramanjooloo, R. Wainscoat,
   R. Weryk. 1.8-m Ritchey-Chrétien + CCD.
(G96) Mt. Lemmon Survey  (N32.442751 W110.788720)  US/Arizona.  Observers T.
   A. Pruyne, B. M. Africano, E. J. Christensen, G. A. Farneth, D. C. Fuls,
   A. R. Gibbs, A. D. Grauer, H. Gröller, J. A. Johnson, R. A. Kowalski, S.
   M. Larson, G. J. Leonard, D. Rankin, R. L. Seaman, F. C. Shelly, K. W.
   Wierzchoś. 1.5-m reflector + 10K CCD.
(I52) Steward Observatory, Mt. Lemmon Station  (N32.442544 W110.788920)
   US/Arizona.  Observers T. A. Pruyne, B. M. Africano, E. J. Christensen, G.
   A. Farneth, D. C. Fuls, A. R. Gibbs, A. D. Grauer, H. Gröller, J. A.
   Johnson, R. A. Kowalski, S. M. Larson, G. J. Leonard, D. Rankin, R. L.
   Seaman, F. C. Shelly, K. W. Wierzchoś. 1.0-m reflector + CCD.

Orbital elements:  P11C69o
   Perihelion 2020 Jun 4.18296 +/- 925 TT =  4:23:27 (JD 2459004.68296)
Epoch 2022 Nov 25.0 TT = JDT 2459908.5   Ju: 0.4195           AutoNEOCP
M  76.62282485 +/- 100              (J2000 ecliptic)
n   0.08477691 +/- 0.00886          Peri.  221.06402 +/- 100
a   5.13197218 +/- 0.357            Node   112.35791 +/- 6
e   0.1651724 +/- 0.154             Incl.   10.55973 +/- 2.2
P  11.63                   H 14.6   G  0.15   U  9.8  SR
q 4.28431164 +/- 0.785    Q 5.97963272 +/- 0.984
From 13 observations 2022 Nov. 16-25; mean residual 0".58
Residuals in arcseconds: 
221116 F52  .10-  .02+    221116 G96  .38+  .02-    221125 I52  .50-  .04+    
221116 F52  .02-  .08+    221116 G96  .38-  .69-    221125 I52  .43-  .41+    
221116 F52  .03+  .13-    221124 F51  .96+  .15-    221125 I52  1.9-  .07+    
221116 G96  .02-  .32+    221124 F51  1.0+  .00     
221116 G96  .14-  .47+    221124 F51  1.1+  .41-    

Ephemerides (geocentric):
Date (UTC) HH   RA             Dec           delta  r     elong  mag " sig PA
---- --------  ------------   ------------  ------ ------ -----  --- --------
2022 11 25 20  04 43 20.951   +13 15 38.28  4.1049 5.0748 168.1 21.5 2.04  26
2022 11 25 21  04 43 19.540   +13 15 37.11  4.1048 5.0749 168.1 21.5 2.15  26
2022 11 25 22  04 43 18.129   +13 15 35.94  4.1048 5.0749 168.2 21.5 2.25  26
2022 11 25 23  04 43 16.717   +13 15 34.77  4.1048 5.0750 168.2 21.5 2.36  26
2022 11 26 00  04 43 15.305   +13 15 33.60  4.1047 5.0750 168.2 21.5 2.47  26
2022 11 26 01  04 43 13.893   +13 15 32.44  4.1047 5.0751 168.2 21.5 2.58  26
2022 11 26 02  04 43 12.481   +13 15 31.28  4.1047 5.0751 168.3 21.5 2.69  26
2022 11 26 03  04 43 11.068   +13 15 30.12  4.1046 5.0752 168.3 21.5 2.80  26
2022 11 26 04  04 43 09.655   +13 15 28.97  4.1046 5.0752 168.3 21.5 2.92  26
2022 11 26 05  04 43 08.242   +13 15 27.82  4.1046 5.0753 168.4 21.5 3.03  26
2022 11 26 06  04 43 06.828   +13 15 26.67  4.1046 5.0753 168.4 21.5 3.14  25
2022 11 26 07  04 43 05.414   +13 15 25.53  4.1045 5.0754 168.4 21.5 3.25  25
2022 11 26 08  04 43 04.000   +13 15 24.39  4.1045 5.0754 168.5 21.5 3.37  25
2022 11 26 09  04 43 02.586   +13 15 23.25  4.1045 5.0755 168.5 21.5 3.48  25
2022 11 26 10  04 43 01.171   +13 15 22.12  4.1045 5.0756 168.5 21.5 3.60  25
2022 11 26 11  04 42 59.756   +13 15 20.99  4.1044 5.0756 168.6 21.5 3.72  25
2022 11 26 12  04 42 58.341   +13 15 19.86  4.1044 5.0757 168.6 21.5 3.83  25
2022 11 26 13  04 42 56.925   +13 15 18.73  4.1044 5.0757 168.6 21.5 3.95  25
2022 11 26 14  04 42 55.509   +13 15 17.61  4.1044 5.0758 168.6 21.5 4.07  25
2022 11 26 15  04 42 54.093   +13 15 16.49  4.1044 5.0758 168.7 21.5 4.19  25
2022 11 26 16  04 42 52.677   +13 15 15.38  4.1043 5.0759 168.7 21.5 4.31  25
2022 11 26 17  04 42 51.260   +13 15 14.27  4.1043 5.0759 168.7 21.5 4.43  25
2022 11 26 18  04 42 49.844   +13 15 13.16  4.1043 5.0760 168.8 21.5 4.55  25
2022 11 26 19  04 42 48.427   +13 15 12.05  4.1043 5.0760 168.8 21.5 4.67  25
2022 11 26 20  04 42 47.009   +13 15 10.95  4.1043 5.0761 168.8 21.5 4.79  25
2022 11 26 21  04 42 45.592   +13 15 09.85  4.1042 5.0761 168.9 21.5 4.92  25
2022 11 26 22  04 42 44.174   +13 15 08.75  4.1042 5.0762 168.9 21.5 5.04  25
2022 11 26 23  04 42 42.756   +13 15 07.66  4.1042 5.0762 168.9 21.5 5.16  25
2022 11 27 00  04 42 41.338   +13 15 06.57  4.1042 5.0763 168.9 21.5 5.29  25
2022 11 27 01  04 42 39.919   +13 15 05.48  4.1042 5.0763 169.0 21.5 5.41  25
2022 11 27 02  04 42 38.500   +13 15 04.39  4.1042 5.0764 169.0 21.5 5.54  25
2022 11 27 03  04 42 37.081   +13 15 03.31  4.1041 5.0765 169.0 21.5 5.66  25
2022 11 27 04  04 42 35.662   +13 15 02.24  4.1041 5.0765 169.1 21.5 5.79  25
2022 11 27 05  04 42 34.242   +13 15 01.16  4.1041 5.0766 169.1 21.5 5.92  25
2022 11 27 06  04 42 32.823   +13 15 00.09  4.1041 5.0766 169.1 21.5 6.05  25
2022 11 27 07  04 42 31.403   +13 14 59.02  4.1041 5.0767 169.1 21.5 6.18  25
2022 11 27 08  04 42 29.982   +13 14 57.96  4.1041 5.0767 169.2 21.5 6.31  25
2022 11 27 09  04 42 28.562   +13 14 56.89  4.1041 5.0768 169.2 21.5 6.44  25
2022 11 27 10  04 42 27.141   +13 14 55.84  4.1041 5.0768 169.2 21.4 6.57  25
2022 11 27 11  04 42 25.721   +13 14 54.78  4.1040 5.0769 169.2 21.4 6.70  25
2022 11 27 12  04 42 24.299   +13 14 53.73  4.1040 5.0769 169.3 21.4 6.83  25
2022 11 27 13  04 42 22.878   +13 14 52.68  4.1040 5.0770 169.3 21.4 6.96  25
2022 11 27 14  04 42 21.457   +13 14 51.63  4.1040 5.0770 169.3 21.4 7.09  25
2022 11 27 15  04 42 20.035   +13 14 50.59  4.1040 5.0771 169.4 21.4 7.23  25
2022 11 27 16  04 42 18.613   +13 14 49.55  4.1040 5.0771 169.4 21.4 7.36  26
2022 11 27 17  04 42 17.191   +13 14 48.51  4.1040 5.0772 169.4 21.4 7.50  26
2022 11 27 18  04 42 15.768   +13 14 47.48  4.1040 5.0772 169.4 21.4 7.63  26
2022 11 27 19  04 42 14.346   +13 14 46.45  4.1040 5.0773 169.5 21.4 7.77  26